Location: Dodgeville, WI 53533, USA
(43.0344°N, 90.0900°W)
Time: 14:26:43
(UTC-05:00)

Tiangong 2 - Visible Passes

Search period start: 21 August 2018 00:00
Search period end: 31 August 2018 00:00
Orbit: 384 x 395 km, 42.8° (Epoch: 20 August)

Date Brightness Start Highest point End Pass type
(mag) Time Alt. Az. Time Alt. Az. Time Alt. Az.
21 Aug 1.4 04:21:05 54° SSE 04:21:05 54° SSE 04:24:06 10° E visible
22 Aug 4.2 03:25:50 12° E 03:25:50 12° E 03:26:09 10° E visible
22 Aug 1.0 04:58:09 25° W 04:59:52 86° S 05:03:05 10° E visible
23 Aug 2.2 04:02:56 41° E 04:02:56 41° E 04:05:10 10° E visible
23 Aug 1.1 05:35:37 10° W 05:38:49 80° S 05:42:02 10° E visible
24 Aug 1.0 04:40:06 47° W 04:40:55 88° S 04:44:07 10° E visible
25 Aug 3.5 03:44:59 21° E 03:44:59 21° E 03:46:12 10° E visible
25 Aug 1.1 05:17:19 15° W 05:19:49 62° SSW 05:22:59 10° ESE visible
26 Aug 1.3 04:22:20 63° SE 04:22:20 63° SE 04:25:07 10° ESE visible
27 Aug 1.5 04:59:50 32° WSW 05:00:45 41° SSW 05:03:46 10° SE visible
28 Aug 3.5 04:05:10 17° ESE 04:05:10 17° ESE 04:06:01 10° ESE visible
28 Aug 2.9 05:37:32 12° WSW 05:39:20 17° SSW 05:41:30 10° SSE visible
29 Aug 3.1 04:43:06 18° SSE 04:43:06 18° SSE 04:44:18 10° SSE visible
